Location: Arena
(42.5007°N, 9.4650°E)
Time: 09:31:48
(UTC+00:00)

SL-4 R/B - Pass Details

Date: 09 April 2020
Orbit: 428 x 666 km, 51.6° (Epoch: 04 June)

Event Time Altitude Azimuth Distance (km) Brightness Sun altitude
Rises 19:02:15 0° 271° (W) 2,398 6.7 -12.2°
Reaches altitude 10° 19:04:37 10° 285° (WNW) 1,524 5.7 -12.6°
Maximum altitude 19:07:29 25° 343° (NNW) 912 3.6 -13.1°
Drops below altitude 10° 19:10:24 10° 41° (NE) 1,540 4.1 -13.6°
Enters shadow 19:11:40 - 50° (NE) 2,002 4.6 -13.8°
